Location: ????????
(55.4000°N, 39.1167°E)
Time: 03:36:16
(UTC+00:00)

NOSS 3-1 (A) - Pass Details

Date: 19 May 2025
Orbit: 667 x 1541 km, 63.4° (Epoch: 12 June)

Event Time Altitude Azimuth Distance (km) Brightness Sun altitude
Rises 20:50:29 0° 235° (SW) 3,135 5.9 -14.4°
Reaches altitude 10° 20:52:40 10° 236° (WSW) 2,285 5.2 -14.4°
Maximum altitude 20:57:53 79° 324° (NW) 879 3.4 -14.5°
Drops below altitude 10° 21:04:20 10° 52° (NE) 2,802 6.4 -14.6°
Sets 21:07:15 0° 53° (NE) 3,900 7.1 -14.6°
